Overview Statistics Trail Chart Weather Telemetry Raw packets
 

This is the latest recevied weather packets stored in our database for station/object N3LF. If no packets are shown the sender has not sent any weather packets the latest 10 day(s).

<< 111 112 113 114 >>
Time Temp. Humidity Pressure Rain* Wind** Luminosity Snow
1787777419 26.67° C 91% 1017.1 hPa 0 mm - 549 W/m² -
1787777118 25° C 91% 1017.2 hPa 0 mm - 535 W/m² -
1787776817 25° C 94% 1017.1 hPa 0 mm - 244 W/m² -
1787776516 24.44° C 93% 1017.3 hPa 0 mm - 157 W/m² -
1787776214 25° C 93% 1017.3 hPa 0 mm - 176 W/m² -
1787775908 24.44° C 96% 1017.2 hPa 0 mm - 242 W/m² -
1787775604 23.89° C 97% 1017.4 hPa 0 mm - 322 W/m² -
1787775302 23.33° C 98% 1017.4 hPa 0 mm - 407 W/m² -
1787775002 23.33° C 99% 1017.6 hPa 0 mm - 454 W/m² -
1787774701 22.78° C 99% 1017.7 hPa 0 mm - 377 W/m² -
1787774400 22.78° C 99% 1017.7 hPa 0 mm - 290 W/m² -
1787774095 22.78° C 99% 1017.5 hPa 0 mm - 246 W/m² -
1787773794 22.78° C 99% 1017.5 hPa 0 mm - 237 W/m² -
1787773488 22.22° C 99% 1018 hPa 0 mm - 229 W/m² -
1787773184 22.22° C 99% 1017.3 hPa 0 mm - 211 W/m² -
1787772879 21.67° C 99% 1017.8 hPa 0 mm - 159 W/m² -
1787772582 21.67° C 99% 1018.4 hPa 0 mm - 116 W/m² -
1787772273 21.67° C 99% 1018.2 hPa 1.78 mm - 109 W/m² -
1787771971 21.67° C 99% 1018.2 hPa 1.78 mm - 122 W/m² -
1787771667 21.67° C 99% 1018.4 hPa 0 mm - 112 W/m² -
1787771361 21.67° C 99% 1018.3 hPa 0 mm - 94 W/m² -
1787771055 21.11° C 99% 1018.2 hPa 0 mm - 76 W/m² -
1787770755 21.11° C 99% 1018.1 hPa 0 mm - 65 W/m² -
1787770450 21.11° C 99% 1018.1 hPa 0 mm - 56 W/m² -
1787770148 21.11° C 99% 1017.7 hPa 0 mm - 26 W/m² -

* Rain latest hour (hover to see other rain measurements)
** Current wind speed in m/s (hover to see current wind gust speed)